Weather History for KBQP - March, 2014

Change the Weather History Date:

Monday, March 17, 2014

  Actual Average (KMLU) Record (KMLU)
Temperature  
Mean Temperature 42 °F 58 °F  
Max Temperature 49 °F 70 °F 91 °F (1963)
Min Temperature 35 °F 47 °F 29 °F (1978)
Degree Days  
Heating Degree Days 23 8  
Month to date heating degree days 164  
Since 1 July heating degree days 2058  
Cooling Degree Days 0 1  
Month to date cooling degree days 15  
Year to date cooling degree days 26  
Moisture  
Dew Point 33 °F    
Average Humidity 76    
Maximum Humidity 91    
Minimum Humidity 58    
Precipitation  
Precipitation 0.00 in 0.15 in 2.34 in (1961)
Month to date precipitation 2.73  
Year to date precipitation 12.37  
Snow  
Snow 0.00 in - - ()
Month to date snowfall  
Since 1 July snowfall  
Snow Depth -    
Sea Level Pressure  
Sea Level Pressure 29.90 in    
Wind  
Wind Speed 2 mph (NNW)    
Max Wind Speed 9 mph    
Max Gust Speed 16 mph    
Visibility 10 miles    
Events Rain    
T = Trace of Precipitation, MM = Missing Value Source: NWS Daily Summary

Daily Weather History Graph

Daily Weather History Graph

Search for Another Location

Airport or City:

Trip Planner

Search our weather history database for the weather conditions in past years. The results will help you decide how hot, cold, wet, or windy it might be!

Date:

Astronomy

Mar. 17, 2014 Rise Set
Actual Time 7:15 AM CDT 7:16 PM CDT
Civil Twilight 6:50 AM CDT 7:41 PM CDT
Nautical Twilight 6:21 AM CDT 8:10 PM CDT
Astronomical Twilight 5:53 AM CDT 8:39 PM CDT
Moon 8:28 PM CDT (3/17) 7:35 AM CDT (3/17)
Length of Visible Light 12h 50m
Length of Day
12h 01m
Full, 99% of the Moon is Illuminated
Mar 17
Full
Mar 23
Last Quarter
Mar 30
New
Apr 7
First Quarter
Apr 15
Full

Hourly Weather History & Observations

Time (CDT) Temp. Windchill Dew Point Humidity Pressure Visibility Wind Dir Wind Speed Gust Speed Precip Events Conditions
12:15 AM 41.5 °F - 36.0 °F 81% 29.93 in 10.0 mi Calm Calm - N/A   Overcast
12:35 AM 41.9 °F 40.0 °F 34.3 °F 75% 29.92 in 10.0 mi NNW 3.5 mph - N/A   Overcast
1:15 AM 40.1 °F 36.9 °F 36.0 °F 85% 29.92 in 5.0 mi NNW 4.6 mph 16.1 mph N/A   Overcast
1:35 AM 40.1 °F - 34.3 °F 80% 29.92 in 10.0 mi Calm Calm - N/A   Overcast
1:55 AM 40.1 °F 34.1 °F 34.3 °F 80% 29.92 in 10.0 mi NNW 9.2 mph - N/A   Overcast
2:15 AM 39.6 °F 34.7 °F 34.2 °F 81% 29.92 in 10.0 mi NNW 6.9 mph - N/A   Overcast
2:35 AM 39.6 °F - 33.8 °F 80% 29.92 in 10.0 mi Calm Calm - N/A   Overcast
2:55 AM 39.4 °F - 33.8 °F 80% 29.91 in 10.0 mi Calm Calm - N/A   Overcast
3:15 AM 39.4 °F - 33.8 °F 80% 29.92 in 10.0 mi Calm Calm - N/A   Overcast
3:35 AM 38.5 °F 32.7 °F 34.2 °F 84% 29.92 in 5.0 mi NNW 8.1 mph - N/A Rain Light Rain
3:55 AM 38.3 °F 35.9 °F 34.7 °F 87% 29.92 in 10.0 mi NNW 3.5 mph - N/A   Overcast
4:15 AM 37.9 °F 33.5 °F 34.3 °F 87% 29.91 in 10.0 mi NNW 5.8 mph 16.1 mph N/A   Light Drizzle
4:35 AM 37.8 °F 31.8 °F 33.4 °F 84% 29.91 in 10.0 mi NNW 8.1 mph - N/A   Overcast
4:55 AM 37.9 °F 32.1 °F 33.3 °F 83% 29.91 in 10.0 mi NNW 8.1 mph - N/A   Overcast
5:15 AM 37.9 °F 32.7 °F 33.1 °F 83% 29.91 in 10.0 mi NNW 6.9 mph - N/A   Overcast
5:35 AM 37.6 °F - 33.8 °F 86% 29.91 in 5.0 mi Calm Calm - N/A   Light Drizzle
5:55 AM 37.4 °F 32.1 °F 33.1 °F 84% 29.91 in 10.0 mi North 6.9 mph - N/A   Overcast
6:15 AM 37.6 °F - 32.2 °F 81% 29.91 in 10.0 mi Calm Calm - N/A   Overcast
6:35 AM 37.6 °F - 32.2 °F 81% 29.91 in 10.0 mi Calm Calm - N/A   Overcast
6:55 AM 37.4 °F - 32.4 °F 82% 29.92 in 10.0 mi Calm Calm - N/A   Overcast
7:15 AM 37.4 °F - 32.2 °F 81% 29.92 in 10.0 mi Calm Calm - N/A   Overcast
7:35 AM 37.4 °F - 32.9 °F 84% 29.92 in 7.0 mi Calm Calm - N/A   Overcast
7:55 AM 37.0 °F - 32.9 °F 85% 29.93 in 10.0 mi Calm Calm - N/A   Overcast
8:15 AM 37.4 °F - 32.7 °F 83% 29.93 in 10.0 mi Calm Calm - N/A   Overcast
8:35 AM 37.6 °F - 32.5 °F 82% 29.93 in 10.0 mi Calm Calm - N/A   Overcast
8:55 AM 37.8 °F 33.3 °F 32.0 °F 80% 29.94 in 10.0 mi North 5.8 mph - N/A   Overcast
9:15 AM 37.6 °F - 31.5 °F 79% 29.94 in 10.0 mi Calm Calm - N/A   Overcast
9:35 AM 38.8 °F 35.4 °F 31.8 °F 76% 29.94 in 10.0 mi NNW 4.6 mph - N/A   Overcast
9:55 AM 38.8 °F 35.4 °F 31.6 °F 75% 29.93 in 10.0 mi North 4.6 mph - N/A   Overcast
10:15 AM 38.3 °F - 32.0 °F 78% 29.93 in 10.0 mi Calm Calm - N/A   Overcast
10:35 AM 39.7 °F 35.6 °F 31.6 °F 73% 29.93 in 10.0 mi NNW 5.8 mph - N/A   Overcast
10:55 AM 39.7 °F 35.6 °F 30.7 °F 70% 29.94 in 10.0 mi NNW 5.8 mph - N/A   Overcast
11:15 AM 39.7 °F 33.7 °F 30.7 °F 70% 29.94 in 10.0 mi NW 9.2 mph - N/A   Overcast
11:35 AM 39.4 °F - 30.4 °F 70% 29.94 in 10.0 mi Calm Calm - N/A   Overcast
11:55 AM 39.7 °F - 31.6 °F 73% 29.94 in 10.0 mi Calm Calm - N/A   Overcast
12:15 PM 40.6 °F - 31.5 °F 70% 29.94 in 10.0 mi Calm Calm - N/A   Overcast
12:35 PM 41.2 °F 37.3 °F 31.6 °F 69% 29.94 in 10.0 mi NNW 5.8 mph - N/A   Overcast
12:55 PM 42.8 °F 38.6 °F 32.0 °F 66% 29.92 in 10.0 mi NW 6.9 mph - N/A   Overcast
1:15 PM 42.6 °F 39.0 °F 31.8 °F 66% 29.91 in 10.0 mi NNW 5.8 mph - N/A   Overcast
1:35 PM 43.3 °F 38.6 °F 32.0 °F 64% 29.90 in 10.0 mi North 8.1 mph - N/A   Overcast
1:55 PM 44.2 °F - 32.0 °F 62% 29.88 in 10.0 mi Calm Calm - N/A   Overcast
2:15 PM 45.5 °F 42.5 °F 32.2 °F 60% 29.87 in 10.0 mi NW 5.8 mph - N/A   Overcast
2:35 PM 45.1 °F - 32.7 °F 62% 29.87 in 10.0 mi Calm Calm - N/A   Overcast
2:55 PM 46.2 °F 45.0 °F 33.3 °F 61% 29.86 in 10.0 mi NW 3.5 mph - N/A   Overcast
3:15 PM 45.5 °F - 33.1 °F 62% 29.86 in 10.0 mi Calm Calm - N/A   Overcast
3:35 PM 46.2 °F - 33.1 °F 60% 29.86 in 10.0 mi Calm Calm - N/A   Overcast
3:55 PM 46.2 °F - 33.8 °F 62% 29.86 in 10.0 mi Calm Calm - N/A   Overcast
4:15 PM 45.9 °F 42.3 °F 33.3 °F 61% 29.86 in 10.0 mi WNW 6.9 mph - N/A   Overcast
4:35 PM 46.6 °F - 33.6 °F 61% 29.86 in 10.0 mi NW 5.8 mph - N/A   Overcast
4:55 PM 47.3 °F - 33.8 °F 59% 29.85 in 10.0 mi Calm Calm - N/A   Overcast
5:15 PM 47.3 °F - 34.0 °F 60% 29.85 in 10.0 mi NW 3.5 mph - N/A   Overcast
5:35 PM 48.4 °F - 34.2 °F 58% 29.84 in 10.0 mi Calm Calm - N/A   Overcast
5:55 PM 48.7 °F - 34.5 °F 58% 29.84 in 10.0 mi Calm Calm - N/A   Overcast
6:15 PM 48.6 °F - 34.9 °F 59% 29.85 in 10.0 mi Calm Calm - N/A   Mostly Cloudy
6:35 PM 49.1 °F - 35.4 °F 59% 29.85 in 10.0 mi Calm Calm - N/A   Mostly Cloudy
6:55 PM 47.5 °F - 35.1 °F 62% 29.86 in 10.0 mi Calm Calm - N/A   Mostly Cloudy
7:15 PM 46.2 °F - 35.1 °F 65% 29.87 in 10.0 mi Calm Calm - N/A   Scattered Clouds
7:35 PM 44.8 °F - 35.6 °F 70% 29.88 in 10.0 mi Calm Calm - N/A   Mostly Cloudy
7:55 PM 44.8 °F - 36.1 °F 72% 29.89 in 10.0 mi Calm Calm - N/A   Mostly Cloudy
8:15 PM 43.2 °F - 36.1 °F 76% 29.89 in 10.0 mi Calm Calm - N/A   Scattered Clouds
8:35 PM 41.4 °F - 36.0 °F 81% 29.88 in 10.0 mi Calm Calm - N/A   Scattered Clouds
8:55 PM 39.7 °F - 35.8 °F 86% 29.88 in 10.0 mi Calm Calm - N/A   Clear
9:15 PM 38.5 °F - 35.1 °F 87% 29.88 in 10.0 mi Calm Calm - N/A   Clear
9:35 PM 37.9 °F - 34.7 °F 88% 29.89 in 10.0 mi Calm Calm - N/A   Clear
9:55 PM 37.2 °F - 34.2 °F 89% 29.88 in 10.0 mi Calm Calm - N/A   Clear
10:15 PM 36.9 °F - 34.2 °F 90% 29.88 in 10.0 mi Calm Calm - N/A   Clear
10:35 PM 37.4 °F - 34.7 °F 90% 29.88 in 10.0 mi Calm Calm - N/A   Clear
10:55 PM 36.5 °F - 33.8 °F 90% 29.89 in 7.0 mi Calm Calm - N/A   Clear
11:15 PM 35.6 °F - 33.1 °F 91% 29.89 in 7.0 mi Calm Calm - N/A   Clear
11:35 PM 35.6 °F - 33.1 °F 91% 29.90 in 7.0 mi Calm Calm - N/A   Clear
11:55 PM 35.6 °F - 33.1 °F 91% 29.90 in 5.0 mi Calm Calm - N/A   Clear